Gwinn, MI

2:32 AM EDT on August 27, 2016 (GMT -0400)
Sawyer International

Weather History for KSAW - November, 2011

Change the Weather History Date:

Friday, November 11, 2011

  Actual Average (KESC) Record (KESC)
Temperature  
Mean Temperature 30 °F -  
Max Temperature 32 °F 41 °F 62 °F (2010)
Min Temperature 28 °F 29 °F 8 °F (1986)
Degree Days  
Heating Degree Days 35    
Moisture  
Dew Point 25 °F    
Average Humidity 78    
Maximum Humidity 93    
Minimum Humidity 69    
Precipitation  
Precipitation 0.00 in - - ()
Sea Level Pressure  
Sea Level Pressure 29.73 in    
Wind  
Wind Speed 7 mph (WSW)    
Max Wind Speed 17 mph    
Max Gust Speed 23 mph    
Visibility 10 miles    
Events      
Averages and records for this station are not official NWS values.
T = Trace of Precipitation, MM = Missing Value Source: NWS Daily Summary

Daily Weather History Graph

Daily Weather History Graph

Search for Another Location

Airport or City:

Trip Planner

Search our weather history database for the weather conditions in past years. The results will help you decide how hot, cold, wet, or windy it might be!

Date:

Astronomy

Nov. 11, 2011 Rise Set
Actual Time 7:44 AM EST 5:21 PM EST
Civil Twilight 7:12 AM EST 5:53 PM EST
Nautical Twilight 6:36 AM EST 6:30 PM EST
Astronomical Twilight 6:01 AM EST 7:05 PM EST
Moon 5:44 PM EST (11/11) 8:38 AM EST (11/11)
Length of Visible Light 10h 41m
Length of Day
9h 36m
Full, 99% of the Moon is Illuminated
Nov 11
Full
Nov 18
Last Quarter
Nov 25
New
Dec 2
First Quarter
Dec 10
Full

Hourly Weather History & Observations

Time (EST) Temp. Windchill Dew Point Humidity Pressure Visibility Wind Dir Wind Speed Gust Speed Precip Events Conditions
12:17 AM - - - N/A% 29.82 in 7.0 mi West 4.6 mph - N/A   Unknown
12:37 AM - - - N/A% 29.82 in 10.0 mi West 4.6 mph - N/A   Mostly Cloudy
12:57 AM - - - N/A% 29.82 in 10.0 mi West 5.8 mph - N/A   Scattered Clouds
1:17 AM - - - N/A% 29.83 in 10.0 mi West 4.6 mph - N/A   Mostly Cloudy
1:37 AM - - - N/A% 29.82 in 10.0 mi Calm Calm - N/A   Mostly Cloudy
1:57 AM - - - N/A% 29.82 in 10.0 mi WNW 4.6 mph - N/A   Mostly Cloudy
2:17 AM - - - N/A% 29.82 in 10.0 mi West 6.9 mph - N/A   Overcast
2:37 AM - - - N/A% 29.82 in 10.0 mi WNW 5.8 mph - N/A   Overcast
2:57 AM - - - N/A% 29.82 in 10.0 mi West 4.6 mph - N/A   Overcast
3:17 AM - - - N/A% 29.82 in 10.0 mi West 4.6 mph - N/A   Overcast
3:36 AM - - - N/A% 29.82 in 10.0 mi West 4.6 mph - N/A   Overcast
3:57 AM - - - N/A% 29.83 in 10.0 mi West 5.8 mph - N/A   Overcast
4:17 AM - - - N/A% 29.82 in 10.0 mi WNW 6.9 mph - N/A   Overcast
4:38 AM - - - N/A% 29.82 in 10.0 mi West 4.6 mph - N/A   Overcast
4:57 AM - - - N/A% 29.82 in 10.0 mi West 3.5 mph - N/A   Overcast
5:17 AM - - - N/A% 29.83 in 10.0 mi West 4.6 mph - N/A   Overcast
5:37 AM - - - N/A% 29.83 in 10.0 mi WSW 5.8 mph - N/A   Overcast
5:57 AM - - - N/A% 29.83 in 10.0 mi West 5.8 mph - N/A   Overcast
6:50 AM 28.4 °F 22.2 °F 26.6 °F 93% 29.82 in 10.0 mi WSW 5.8 mph - N/A   Overcast
7:50 AM 28.4 °F 21.2 °F 26.6 °F 93% 29.82 in 10.0 mi WSW 6.9 mph - N/A   Overcast
8:50 AM 30.2 °F 23.4 °F 26.6 °F 86% 29.81 in 10.0 mi SW 6.9 mph - N/A   Overcast
9:50 AM 30.2 °F 20.8 °F 23.0 °F 75% 29.80 in 10.0 mi WSW 11.5 mph - N/A   Clear
10:48 AM 30.2 °F 20.8 °F 23.0 °F 75% 29.78 in 10.0 mi SW 11.5 mph - N/A   Clear
11:50 AM 32.0 °F 22.5 °F 23.0 °F 69% 29.75 in 10.0 mi SSW 12.7 mph - N/A   Clear
12:50 PM 32.0 °F 21.6 °F 23.0 °F 69% 29.73 in 10.0 mi SSW 15.0 mph - N/A   Mostly Cloudy
1:50 PM 32.0 °F 22.1 °F 23.0 °F 69% 29.71 in 10.0 mi SSW 13.8 mph - N/A   Overcast
2:50 PM 32.0 °F 22.5 °F 24.8 °F 75% 29.67 in 10.0 mi South 12.7 mph - N/A   Overcast
3:50 PM 32.0 °F 21.6 °F 24.8 °F 75% 29.64 in 10.0 mi South 15.0 mph - N/A   Scattered Clouds
4:50 PM 32.0 °F 21.2 °F 26.6 °F 80% 29.60 in 10.0 mi South 16.1 mph - N/A   Overcast
5:50 PM 32.0 °F 20.8 °F 26.6 °F 80% 29.57 in 10.0 mi South 17.3 mph - N/A   Scattered Clouds
6:55 PM 32.0 °F 21.6 °F 26.6 °F 80% 29.58 in 10.0 mi SSW 15.0 mph 23.0 mph N/A   Mostly Cloudy
7:50 PM 32.0 °F 22.1 °F 26.6 °F 80% 29.57 in 10.0 mi SSW 13.8 mph 19.6 mph N/A   Mostly Cloudy
8:50 PM 32.0 °F 21.6 °F 24.8 °F 75% 29.57 in 10.0 mi SSW 15.0 mph - N/A   Scattered Clouds
9:50 PM 32.0 °F 23.0 °F 24.8 °F 75% 29.56 in 10.0 mi SSW 11.5 mph - N/A   Clear
10:17 PM - - - N/A% 29.55 in 10.0 mi SW 11.5 mph - N/A   Clear
10:37 PM - - - N/A% 29.55 in 10.0 mi SW 10.4 mph - N/A   Clear
10:58 PM - - - N/A% 29.54 in 10.0 mi SW 10.4 mph - N/A   Clear
11:17 PM - - - N/A% 29.54 in 10.0 mi SW 10.4 mph - N/A   Clear
11:37 PM - - - N/A% 29.53 in 10.0 mi WSW 10.4 mph - N/A   Clear
11:58 PM - - - N/A% 29.53 in 10.0 mi WSW 10.4 mph - N/A   Clear